Location: Beuvrequen
(50.8014°N, 1.6652°E)
Time: 03:38:27
(UTC+00:00)

Lacrosse 4 Rocket - Pass Details

Date: 06 June 2022
Orbit: 541 x 611 km, 68.0° (Epoch: 04 July)

Event Time Altitude Azimuth Distance (km) Brightness Sun altitude
Exits shadow 00:33:03 13° 134° (SE) 1,668 3.4 -16.0°
Maximum altitude 00:34:39 16° 108° (ESE) 1,519 3.5 -16.0°
Drops below altitude 10° 00:37:13 10° 70° (ENE) 1,863 4.4 -15.9°
Sets 00:40:05 0° 49° (NE) 2,751 5.8 -15.8°
